Kokomo, IN

10:14 AM EDT on September 28, 2016 (GMT -0400)
Kokomo Municipal

Weather History for KOKK - April, 2014

Change the Weather History Date:

Monday, April 14, 2014

  Actual Average (KGUS) Record (KGUS)
Temperature  
Mean Temperature 49 °F -  
Max Temperature 68 °F 60 °F 80 °F (2003)
Min Temperature 30 °F 41 °F 28 °F (1997)
Degree Days  
Heating Degree Days 16    
Moisture  
Dew Point 41 °F    
Average Humidity 78    
Maximum Humidity 88    
Minimum Humidity 53    
Precipitation  
Precipitation 0.07 in - - ()
Sea Level Pressure  
Sea Level Pressure 29.70 in    
Wind  
Wind Speed 17 mph (WNW)    
Max Wind Speed 26 mph    
Max Gust Speed 37 mph    
Visibility 8 miles    
Events      
Averages and records for this station are not official NWS values.
T = Trace of Precipitation, MM = Missing Value Source: NWS Daily Summary

Daily Weather History Graph

Daily Weather History Graph

Search for Another Location

Airport or City:

Trip Planner

Search our weather history database for the weather conditions in past years. The results will help you decide how hot, cold, wet, or windy it might be!

Date:

Astronomy

Apr. 14, 2014 Rise Set
Actual Time 6:07 AM CDT 7:22 PM CDT
Civil Twilight 5:39 AM CDT 7:50 PM CDT
Nautical Twilight 5:05 AM CDT 8:24 PM CDT
Astronomical Twilight 4:29 AM CDT 9:00 PM CDT
Moon 7:00 PM CDT (4/14) 5:39 AM CDT (4/14)
Length of Visible Light 14h 11m
Length of Day
13h 15m
Full, 100% of the Moon is Illuminated
Apr 14
Full
Apr 15
Full
Apr 22
Last Quarter
Apr 29
New
May 6
First Quarter

Hourly Weather History & Observations

Time (CDT) Temp. Windchill Dew Point Humidity Pressure Visibility Wind Dir Wind Speed Gust Speed Precip Events Conditions
12:15 AM 66.2 °F - 53.6 °F 64% 29.59 in 10.0 mi South 13.8 mph 18.4 mph N/A   Overcast
12:35 AM 68.0 °F - 53.6 °F 60% 29.58 in 10.0 mi SSW 13.8 mph - N/A   Mostly Cloudy
12:55 AM 66.2 °F - 53.6 °F 64% 29.57 in 10.0 mi WSW 6.9 mph - N/A   Mostly Cloudy
1:15 AM 64.4 °F - 53.6 °F 68% 29.56 in 10.0 mi SW 9.2 mph - N/A   Mostly Cloudy
1:35 AM 64.4 °F - 53.6 °F 68% 29.56 in 10.0 mi SW 11.5 mph - N/A   Overcast
1:55 AM 64.4 °F - 55.4 °F 73% 29.56 in 10.0 mi SSW 17.3 mph 23.0 mph N/A   Overcast
2:15 AM 64.4 °F - 55.4 °F 73% 29.55 in 10.0 mi SSW 24.2 mph 27.6 mph N/A   Mostly Cloudy
2:35 AM 62.6 °F - 55.4 °F 77% 29.54 in 10.0 mi SSW 21.9 mph 28.8 mph N/A   Mostly Cloudy
2:55 AM 62.6 °F - 55.4 °F 77% 29.53 in 10.0 mi SSW 21.9 mph 34.5 mph 0.01 in   Overcast
3:15 AM 62.6 °F - 55.4 °F 77% 29.51 in 9.0 mi SSW 24.2 mph 34.5 mph 0.02 in   Overcast
3:35 AM 62.6 °F - 57.2 °F 82% 29.49 in 10.0 mi South 21.9 mph 28.8 mph 0.03 in   Scattered Clouds
3:55 AM 62.6 °F - 55.4 °F 77% 29.50 in 10.0 mi SSW 23.0 mph 28.8 mph 0.03 in   Partly Cloudy
4:15 AM 62.6 °F - 57.2 °F 82% 29.50 in 10.0 mi SSW 23.0 mph 27.6 mph N/A   Mostly Cloudy
4:35 AM 62.6 °F - 55.4 °F 77% 29.50 in 10.0 mi SSW 26.5 mph 31.1 mph N/A   Overcast
4:55 AM 60.8 °F - 55.4 °F 82% 29.53 in 10.0 mi SSW 23.0 mph 36.8 mph N/A   Overcast
5:15 AM 60.8 °F - 53.6 °F 77% 29.55 in 10.0 mi SW 23.0 mph 29.9 mph N/A   Overcast
5:35 AM 60.8 °F - 53.6 °F 77% 29.57 in 8.0 mi SW 26.5 mph 35.7 mph N/A   Overcast
5:55 AM 59.0 °F - 53.6 °F 82% 29.58 in 9.0 mi SW 24.2 mph 32.2 mph N/A   Mostly Cloudy
6:15 AM 59.0 °F - 53.6 °F 82% 29.58 in 7.0 mi SW 18.4 mph 28.8 mph N/A   Mostly Cloudy
6:35 AM 57.2 °F - 53.6 °F 88% 29.58 in 10.0 mi SW 17.3 mph 25.3 mph N/A   Overcast
6:55 AM 59.0 °F - 53.6 °F 82% 29.58 in 10.0 mi SW 24.2 mph 31.1 mph N/A   Overcast
7:15 AM 59.0 °F - 53.6 °F 82% 29.59 in 10.0 mi SW 25.3 mph 28.8 mph N/A   Overcast
7:35 AM 59.0 °F - 53.6 °F 82% 29.60 in 10.0 mi WSW 24.2 mph 29.9 mph N/A   Overcast
7:55 AM 59.0 °F - 53.6 °F 82% 29.60 in 10.0 mi WSW 18.4 mph - N/A   Overcast
8:15 AM 59.0 °F - 53.6 °F 82% 29.60 in 10.0 mi West 13.8 mph - 0.01 in   Overcast
8:35 AM 57.2 °F - 53.6 °F 88% 29.61 in 10.0 mi West 16.1 mph 23.0 mph 0.01 in   Overcast
8:55 AM 55.4 °F - 51.8 °F 88% 29.63 in 10.0 mi West 20.7 mph 26.5 mph 0.01 in   Overcast
9:15 AM 55.4 °F - 50.0 °F 82% 29.64 in 10.0 mi WNW 16.1 mph 23.0 mph N/A   Overcast
9:35 AM 55.4 °F - 48.2 °F 77% 29.65 in 10.0 mi WNW 18.4 mph - N/A   Overcast
9:55 AM 53.6 °F - 48.2 °F 82% 29.66 in 10.0 mi WNW 21.9 mph - N/A   Overcast
10:15 AM 53.6 °F - 48.2 °F 82% 29.67 in 7.0 mi WNW 20.7 mph - N/A   Overcast
10:35 AM 51.8 °F - 46.4 °F 82% 29.67 in 7.0 mi WNW 17.3 mph - N/A   Overcast
10:55 AM 48.2 °F - 42.8 °F 82% 29.70 in 10.0 mi NNW 19.6 mph - N/A   Overcast
11:15 AM 44.6 °F 36.9 °F 39.2 °F 81% 29.71 in 10.0 mi NNW 18.4 mph - N/A   Overcast
11:35 AM 42.8 °F 35.1 °F 37.4 °F 81% 29.73 in 10.0 mi NNW 16.1 mph - N/A   Overcast
11:55 AM 42.8 °F 34.8 °F 37.4 °F 81% 29.74 in 10.0 mi NW 17.3 mph - N/A   Overcast
12:15 PM 42.8 °F 35.1 °F 37.4 °F 81% 29.75 in 4.0 mi NNW 16.1 mph - N/A   Overcast
12:35 PM 42.8 °F 36.2 °F 26.6 °F 53% 29.75 in 3.0 mi NNW 12.7 mph - N/A   Overcast
12:55 PM 41.0 °F 33.5 °F 35.6 °F 81% 29.76 in 4.0 mi NNW 13.8 mph - N/A   Overcast
1:15 PM 41.0 °F 32.5 °F 35.6 °F 81% 29.76 in 8.0 mi NNW 17.3 mph - N/A   Overcast
1:35 PM 42.8 °F 35.4 °F 35.6 °F 76% 29.76 in 10.0 mi NNW 15.0 mph 21.9 mph N/A   Overcast
1:55 PM 42.8 °F 35.4 °F 35.6 °F 76% 29.76 in 9.0 mi NNW 15.0 mph - N/A   Overcast
2:15 PM 42.8 °F 34.5 °F 35.6 °F 76% 29.76 in 10.0 mi NW 18.4 mph - N/A   Overcast
2:35 PM 42.8 °F 35.4 °F 33.8 °F 70% 29.76 in 10.0 mi NW 15.0 mph - N/A   Overcast
2:55 PM 42.8 °F 35.1 °F 35.6 °F 76% 29.76 in 10.0 mi NNW 16.1 mph - N/A   Overcast
3:15 PM 42.8 °F 37.0 °F 33.8 °F 70% 29.76 in 10.0 mi NNW 10.4 mph - N/A   Overcast
3:35 PM 42.8 °F 36.2 °F 35.6 °F 76% 29.77 in 10.0 mi NNW 12.7 mph - N/A   Overcast
3:55 PM 42.8 °F 35.1 °F 33.8 °F 70% 29.78 in 10.0 mi NW 16.1 mph - N/A   Overcast
4:15 PM 41.0 °F 33.1 °F 33.8 °F 76% 29.77 in 10.0 mi NNW 15.0 mph - N/A   Overcast
4:35 PM 39.2 °F 30.2 °F 30.2 °F 70% 29.77 in 10.0 mi NNW 17.3 mph - N/A   Overcast
4:55 PM 39.2 °F 31.2 °F 33.8 °F 81% 29.77 in 10.0 mi NNW 13.8 mph - N/A   Overcast
5:15 PM 39.2 °F 30.5 °F 32.0 °F 75% 29.77 in 10.0 mi NNW 16.1 mph - N/A   Overcast
5:35 PM 37.4 °F 27.8 °F 30.2 °F 75% 29.79 in 10.0 mi NNW 17.3 mph - N/A   Overcast
5:55 PM 37.4 °F 27.2 °F 30.2 °F 75% 29.80 in 6.0 mi NNW 19.6 mph 25.3 mph N/A   Overcast
6:15 PM 37.4 °F 27.5 °F 30.2 °F 75% 29.81 in 8.0 mi NNW 18.4 mph 24.2 mph N/A   Overcast
6:35 PM 35.6 °F 25.9 °F 28.4 °F 75% 29.83 in 7.0 mi NNW 16.1 mph 23.0 mph N/A   Overcast
6:55 PM 35.6 °F 26.6 °F 30.2 °F 81% 29.85 in 8.0 mi NNW 13.8 mph 21.9 mph N/A   Overcast
7:15 PM 35.6 °F 25.9 °F 28.4 °F 75% 29.86 in 8.0 mi NNW 16.1 mph - N/A   Overcast
7:35 PM 33.8 °F 23.2 °F 28.4 °F 81% 29.86 in 6.0 mi NNW 17.3 mph 24.2 mph N/A   Overcast
7:55 PM 33.8 °F 23.2 °F 28.4 °F 81% 29.83 in 4.0 mi NNW 17.3 mph 27.6 mph N/A   Overcast
8:15 PM 33.8 °F 21.9 °F 28.4 °F 81% 29.86 in 3.0 mi NNW 21.9 mph 25.3 mph N/A   Overcast
8:35 PM 33.8 °F 22.5 °F 28.4 °F 81% 29.85 in 3.0 mi NNW 19.6 mph 25.3 mph 0.01 in   Overcast
8:55 PM 32.0 °F 20.1 °F 26.6 °F 80% 29.86 in 3.0 mi North 19.6 mph 26.5 mph 0.01 in   Overcast
9:15 PM 32.0 °F 21.2 °F 28.4 °F 87% 29.88 in 2.5 mi North 16.1 mph - N/A   Overcast
9:35 PM 32.0 °F 20.8 °F 26.6 °F 80% 29.88 in 5.0 mi North 17.3 mph 25.3 mph N/A   Overcast
9:55 PM 32.0 °F 21.2 °F 28.4 °F 87% 29.88 in 5.0 mi North 16.1 mph 20.7 mph N/A   Overcast
10:15 PM 32.0 °F 20.5 °F 26.6 °F 80% 29.90 in 5.0 mi North 18.4 mph 23.0 mph N/A   Overcast
10:35 PM 30.2 °F 18.9 °F 26.6 °F 86% 29.88 in 4.0 mi North 16.1 mph 23.0 mph 0.01 in   Overcast
10:55 PM 30.2 °F 18.9 °F 26.6 °F 86% 29.89 in 10.0 mi North 16.1 mph - 0.01 in   Overcast
11:15 PM 32.0 °F 22.5 °F 24.8 °F 75% 29.88 in 5.0 mi North 12.7 mph - N/A   Overcast
11:35 PM 30.2 °F 19.8 °F 26.6 °F 86% 29.89 in 10.0 mi NNW 13.8 mph - N/A   Overcast
11:55 PM 32.0 °F 21.6 °F 26.6 °F 80% 29.89 in 8.0 mi NNW 15.0 mph 20.7 mph N/A   Overcast